#timestamp,LO_Frequency,Hit,StdDev 
1504713615.5,286047000.9,N,1.6
1504713635.3,286047000.2,N,1.5
1504713655.1,286047002.7,N,1.6
1504713675.9,286047000.6,N,1.5
1504713695.7,286042648.1,Y,0.0
1504713715.6,286047000.7,P,0.1
1504713735.4,286047000.2,N,0.2
1504713755.2,286047000.2,N,0.2
1504713775.1,286047002.6,Y,0.0
1504713776.0,286047002.6,P,1.1
1504713795.8,286047002.4,N,1.0
1504713815.7,286047001.8,N,0.9
1504713835.5,286047002.3,N,0.8
1504713855.3,286047001.7,N,0.7
1504713875.2,286047001.5,N,0.7
1504713895.0,286047002.3,Y,0.0
1504713895.9,286047002.3,P,0.2
1504713915.8,286046998.5,P,1.7
1504713935.6,286046999.3,N,1.6
1504713955.4,286046999.3,N,1.5
1504713975.3,286046998.9,N,1.5
1504713995.1,286047000.6,N,1.4
1504714015.9,286046998.2,N,1.4
1504714035.7,286046999.2,N,1.4
1504714055.5,286046999.6,N,1.3
1504714075.4,286046997.0,N,1.5
1504714095.2,286046998.3,N,1.5
1504714115.1,286046999.1,N,1.4
1504714116.0,286046999.1,N,1.3
1504714135.8,286046996.5,N,1.5
1504714155.6,286046996.5,N,1.6
1504714175.5,286046997.0,N,1.6
1504714195.3,286046996.6,N,1.6
1504714215.2,286046999.6,N,1.6
1504714235.9,286046999.5,N,1.6
1504714255.7,286046998.9,N,1.5
1504714275.6,286046998.1,N,1.5
1504714295.4,286046998.2,N,1.5
1504714315.3,286047001.0,N,1.5
1504714335.1,286046998.1,N,1.5
1504714336.0,286046998.1,N,1.5
1504714355.8,286046999.9,N,1.5
1504714375.7,286046998.2,N,1.4
1504714395.5,286046998.7,N,1.4
1504714415.4,286047000.8,N,1.4
1504714435.2,286046998.3,N,1.3
1504714455.0,286046999.3,N,1.2
1504714455.9,286046999.3,N,1.2
1504714475.8,286046998.2,N,1.2
1504714495.6,286046998.1,N,1.2
1504714515.5,286047000.5,N,1.2
1504714535.3,286047000.5,N,1.2
1504714555.1,286047001.1,N,1.3
1504714575.9,286046998.1,N,1.3
1504714595.7,286046996.5,N,1.3
1504714615.5,286046996.9,N,1.3
1504714635.4,286046996.9,N,1.4
1504714655.2,286046999.2,N,1.4
1504714675.1,286046999.3,N,1.4
1504714676.0,286046999.3,N,1.3
1504714695.8,286046999.3,N,1.3
1504714715.6,286047000.7,N,1.3
1504714735.5,286046998.3,N,1.2
1504714755.3,286046998.7,N,1.2
1504714775.2,286047000.7,N,1.2
1504714795.9,286047001.0,N,1.3
1504714815.7,286046998.7,N,1.3
1504714835.6,286047000.8,N,1.3
1504714855.4,286046998.5,N,1.3
1504714875.2,286046998.6,N,1.2
1504714895.1,286046998.3,N,1.2
1504714896.0,286046998.3,N,1.2
1504714915.8,286046998.2,N,1.2
1504714935.7,286046998.2,N,1.2
1504714955.5,286046999.9,N,1.2
1504714975.4,286047001.1,N,1.3
1504714995.2,286046999.3,N,1.3
1504715015.0,286047001.1,N,1.3
1504715015.9,286047001.1,N,1.3
1504715035.8,286047000.6,N,1.4
1504715055.6,286047001.2,N,1.4
1504715075.5,286047000.6,N,1.4
1504715095.3,286047000.9,N,1.4
1504715115.1,286047001.0,N,1.4
1504715135.9,286047000.9,N,1.3
1504715155.7,286047000.5,N,1.2
1504715175.5,286047001.1,N,1.1
1504715195.4,286046998.3,N,1.1
1504715215.2,286046999.2,N,1.1
1504715235.1,286046999.1,N,1.1
1504715236.0,286046999.1,N,1.2
1504715255.8,286046996.9,N,1.2
1504715275.7,286046997.1,N,1.3
1504715295.5,286046996.9,N,1.4
1504715315.3,286046999.1,N,1.4
1504715335.2,286046998.7,N,1.4
1504715355.0,286046998.6,N,1.4
1504715355.9,286046998.6,N,1.3
1504715375.7,286046999.2,N,1.3
1504715395.6,286046998.7,N,1.3
1504715415.4,286046999.4,N,1.3
1504715435.3,286046998.4,N,1.3
1504715455.1,286046998.5,N,1.3
1504715475.8,286047000.7,N,1.3
1504715495.7,286047001.1,N,1.3
1504715515.5,286047000.5,N,1.3
1504715535.4,286047000.9,N,1.3
1504715555.2,286046998.2,N,1.3
1504715575.0,286047000.8,N,1.3
1504715575.9,286047000.8,N,1.3
1504715595.8,286046998.5,N,1.3
1504715615.6,286046998.6,N,1.3
1504715635.4,286047000.4,N,1.3
1504715655.3,286047000.3,N,1.2
1504715675.1,286047000.7,N,1.2
1504715695.9,286047000.9,N,1.2
1504715715.7,286047000.8,N,1.2
1504715735.5,286046999.3,N,1.2
1504715755.4,286046998.9,N,1.2
1504715775.2,286046998.8,N,1.2
1504715795.0,286046998.2,N,1.2
1504715796.0,286046998.2,N,1.2
1504715815.8,286046998.7,N,1.1
1504715835.6,286046998.7,N,1.0
1504715855.5,286046998.2,N,1.0
1504715875.3,286047000.0,N,1.0
1504715895.1,286047000.5,N,1.0
1504715915.9,286046999.9,N,1.0
1504715935.7,286047000.1,N,1.0
1504715955.6,286047000.1,N,1.0
1504715975.4,286047002.2,N,1.1
1504715995.2,286047001.9,N,1.2
1504716015.1,286047002.7,N,1.2
1504716016.0,286047002.7,N,1.3
1504716035.8,286047001.7,N,1.3
1504716055.7,286047001.3,N,1.4
1504716075.5,286047002.0,N,1.4
1504716095.3,286047001.3,N,1.4
1504716115.2,286047001.3,N,1.4
1504716135.9,286047004.1,N,1.5
1504716155.7,286047001.7,N,1.5
1504716175.6,286047001.5,N,1.5
1504716195.4,286047002.3,N,1.5
1504716215.3,286047002.4,N,1.5
1504716235.1,286047002.2,N,1.6
1504716255.8,286047002.5,N,1.6
1504716275.7,286047001.5,N,1.6
1504716295.5,286047001.3,N,1.6
1504716315.4,286047001.9,N,1.5
1504716335.2,286047001.6,N,1.5
1504716355.0,286046999.8,N,1.4
1504716355.9,286046999.8,N,1.3
1504716375.8,286046999.8,N,1.3
1504716395.6,286047002.8,N,1.2
1504716415.4,286047001.1,N,1.1
1504716435.3,286046999.0,N,1.1
1504716455.1,286046999.1,N,1.2
1504716475.9,286046999.0,N,1.2
1504716495.7,286046999.6,N,1.3
1504716515.5,286046997.7,N,1.4
1504716535.4,286046997.2,N,1.6
1504716555.2,286046997.3,N,1.7
1504716575.1,286046997.0,N,1.8
1504716576.0,286046997.0,N,1.9
1504716595.8,286046996.9,N,2.0
1504716615.6,286046996.5,N,2.1
1504716635.5,286046999.5,N,2.1
1504716655.3,286046999.6,N,2.1
1504716675.1,286046996.6,N,2.1
1504716695.9,286046997.2,N,2.1
1504716715.7,286046995.8,N,2.1
1504716735.6,286046995.2,N,2.2
1504716755.4,286046996.3,N,2.2
1504716775.2,286046996.3,N,2.2
1504716795.1,286046995.9,N,2.2
1504716796.0,286046995.9,N,2.1
1504716815.8,286046995.9,N,2.1
1504716835.7,286046993.8,N,2.2
1504716855.5,286046996.4,N,2.1
1504716875.3,286046994.1,N,2.0
1504716895.2,286046994.7,N,2.1
1504716915.0,286046994.1,N,2.1
1504716915.9,286046994.1,N,2.1
1504716935.8,286046993.8,N,1.9
1504716955.6,286046994.6,N,1.8
1504716975.4,286046994.0,Y,0.0
1504716995.3,286046997.1,P,0.3
1504717015.1,286046996.9,P,0.2
1504717035.9,286046997.7,P,0.4
1504717055.7,286046997.3,Y,0.0
1504717075.5,286047000.7,P,1.8
1504717095.4,286047001.2,N,1.8
1504717115.2,286046999.3,N,1.6
1504717135.0,286046998.7,N,1.5
1504717136.0,286046998.7,N,1.4
1504717155.8,286046999.4,N,1.3
1504717175.6,286046996.7,N,1.5
1504717195.5,286046997.2,N,1.5
